[[{"header":{"parameterUnit":"m.s-1","parameterCategory":1,"la1":30.2991,"la2":30.254,"lo1":-89.0895,"lo2":-89.0444,"dy":0.0017,"dx":0.0017,"nx":28,"ny":28,"refTime":"2025-01-04T09:00:00:Z","depth":0,"parameterNumber":2,"parameterNumberName":"U-component_of_WINDS"},"data":[0,0,0,0,0,0,0,0,0,0,0,0,0,0,0,0,0,0,0,0,0,0,0,0,0,0,0,0,0,0,0,0,0,0,0,0,0,0,0,0,0,0,0,0,0,0,0,0,0,0,0,0,0,0,0,0,0,0,-6.0365,-6.0366,0,-6.0458,-6.046,-6.0461,-6.0401,-6.0398,-6.0396,-6.0393,-6.0489,-6.0494,-6.0499,0,0,0,0,0,0,0,0,0,0,0,0,0,-6.0135,-6.0139,-6.0365,-6.0366,-6.0367,-6.0458,-6.046,-6.0461,-6.0402,-6.0398,-6.0395,-6.0392,-6.0487,-6.0493,-6.0499,0,0,0,0,0,0,0,0,0,0,0,0,0,-6.0232,-6.0141,-6.0364,-6.0348,-6.0348,-6.0458,-6.046,-6.0461,-6.0402,-6.0398,-6.0394,-6.039,-6.0485,-6.0492,-6.05,-6.0631,0,0,-6.0524,-6.0527,0,0,0,0,0,0,0,0,-6.0227,-6.0241,-6.035,-6.035,-6.0349,-6.0414,-6.0414,-6.0518,-6.0403,-6.0382,-6.0393,-6.0388,-6.0467,-6.0476,-6.0503,-6.0635,-6.064,-6.0524,-6.0529,-6.0532,-6.0534,0,0,0,0,0,0,0,-6.022,-6.0236,-6.0402,-6.0351,-6.0351,-6.0337,-6.0346,-6.0433,-6.0447,-6.0383,-6.0379,-6.0391,-6.0466,-6.0495,-6.0504,-6.0641,-6.0524,-6.0531,-6.0536,-6.0539,-6.0885,-6.089,0,0,0,0,0,0,-6.0215,-6.0231,-6.0399,-6.0404,-6.0277,-6.0344,-6.0355,-6.0397,-6.0445,-6.0449,-6.0395,-6.0388,-6.0484,-6.0496,-6.0508,-6.0662,-6.0532,-6.0539,-6.0544,-6.0881,-6.0886,-6.0891,0,0,0,0,0,0,-6.021,-6.023,-6.0395,-6.0317,-6.0337,-6.0353,-6.0401,-6.0401,-6.043,-6.0454,-6.0456,-6.0422,-6.0481,-6.0497,-6.0601,-6.0665,-6.0543,-6.055,-6.0875,-6.0883,-6.0889,-6.0974,0,0,0,0,0,0,-6.0204,-6.0229,-6.0278,-6.0318,-6.0341,-6.0486,-6.0405,-6.0406,-6.0444,-6.0436,-6.048,-6.0483,-6.0479,-6.0589,-6.0608,-6.0673,-6.0556,-6.087,-6.0879,-6.0887,-6.0965,-6.0982,-6.0997,0,0,0,0,0,-6.0196,-6.0298,-6.0281,-6.0302,-6.0403,-6.049,-6.0503,-6.0496,-6.0449,-6.0499,-6.0515,-6.0482,-6.0656,-6.0601,-6.0621,-6.0689,-6.0865,-6.0876,-6.0886,-6.0958,-6.0979,-6.0997,0,0,0,0,0,0,-6.0265,-6.0303,-6.0284,-6.0403,-6.0444,-6.048,-6.0542,-6.0519,-6.0573,-6.0564,-6.0554,-6.0564,-6.0672,-6.0692,-6.063,-6.0819,-6.0753,-6.0768,-6.0801,-6.0821,-6.0837,-6.0828,-6.0562,0,0,0,0,0,-6.0294,-6.0361,-6.0391,-6.0493,-6.0515,-6.0526,-6.0563,-6.0555,-6.0596,-6.0613,-6.0636,-6.0677,-6.0741,-6.0783,-6.0843,-6.097,-6.0977,-6.1027,-6.1043,-6.1056,-6.1068,-6.1135,-6.1156,-6.0925,-6.0925,-6.0925,0,0,-6.0354,-6.0384,-6.0426,-6.0508,-6.0538,-6.0607,-6.054,-6.0616,-6.0667,-6.0624,-6.0722,-6.0742,-6.0788,-6.0903,-6.0955,-6.0922,-6.1135,-6.107,-6.108,-6.1084,-6.1148,-6.1169,-6.1189,-6.0932,-6.0931,-6.093,0,0,-6.0499,-6.0529,-6.0616,-6.0649,-6.0696,-6.0703,-6.0724,-6.0765,-6.0775,-6.0875,-6.0844,-6.0905,-6.1016,-6.1049,-6.1081,-6.1242,-6.1213,-6.1263,-6.1345,-6.1411,-6.1429,-6.1445,-6.1499,-6.1519,-6.1275,-6.1275,-6.1276,0,-6.0567,-6.067,-6.0664,-6.0743,-6.0779,-6.0745,-6.0833,-6.0865,-6.093,-6.0956,-6.092,-6.1058,-6.1087,-6.1209,-6.1248,-6.1276,-6.1299,-6.1255,-6.1427,-6.1443,-6.1458,-6.1509,-6.153,-6.1281,-6.128,-6.128,-6.1279,0,-6.0751,-6.0823,-6.0888,-6.0951,-6.0996,-6.1079,-6.1086,-6.1132,-6.1122,-6.1132,-6.1234,-6.1268,-6.1334,-6.1364,-6.1354,-6.1485,-6.1463,-6.1428,-6.1361,-6.1485,-6.1533,-6.1553,-6.1288,-6.1286,-6.1285,-6.1283,0,0,-6.0936,-6.0997,-6.1021,-6.1049,-6.11,-6.1156,-6.1239,-6.1304,-6.1342,-6.139,-6.1457,-6.1554,-6.1521,-6.1557,-6.1552,-6.161,-6.1732,-6.1567,-6.1568,-6.1593,-6.1876,-6.1899,-6.1922,-6.1716,-6.172,-6.1723,-6.1871,0,-6.108,-6.1223,-6.1221,-6.1353,-6.1419,-6.139,-6.1462,-6.1502,-6.1516,-6.1574,-6.159,-6.1656,-6.161,-6.1631,-6.1688,-6.1705,-6.1788,-6.1696,-6.1777,-6.178,-6.1761,-6.1948,-6.1972,-6.2109,-6.189,-6.1893,-6.1896,0,-6.1266,-6.1319,-6.1458,-6.15,-6.1528,-6.1592,-6.1652,-6.1709,-6.1754,-6.176,-6.1802,-6.1788,-6.1872,-6.1807,-6.1922,-6.1859,-6.1893,-6.1908,-6.1913,-6.1916,-6.1841,-6.1952,-6.2153,-6.2172,-6.1926,-6.1924,-6.1921,0,-6.1382,-6.149,-6.1586,-6.1612,-6.1664,-6.171,-6.1734,-6.1775,-6.1815,-6.1868,-6.1893,-6.1956,-6.199,-6.2039,-6.2042,-6.1995,-6.2158,-6.2093,-6.2163,-6.2163,-6.2194,-6.2191,-6.2399,-6.2224,-6.2224,-6.2224,-6.2223,0,-6.1541,-6.1626,-6.1639,-6.1697,-6.1792,-6.1792,-6.1885,-6.1906,-6.1943,-6.2005,-6.1986,-6.2045,-6.2049,-6.2109,-6.2114,-6.2207,-6.2223,-6.2229,-6.2228,-6.2228,-6.2227,-6.2246,-6.2235,-6.2229,-6.2228,-6.2227,-6.2226,0,-6.1684,-6.1697,-6.1799,-6.1842,-6.1855,-6.1922,-6.1958,-6.2015,-6.2028,-6.2107,-6.2126,-6.2147,-6.2218,-6.2228,-6.2311,-6.2314,-6.2425,-6.2416,-6.2409,-6.2406,-6.2473,-6.2465,-6.2697,-6.2727,-6.2537,-6.2539,-6.2541,0,-6.1781,-6.1846,-6.1896,-6.1936,-6.1963,-6.2029,-6.2069,-6.2073,-6.2115,-6.2173,-6.2222,-6.2291,-6.2346,-6.2461,-6.2483,-6.2547,-6.2537,-6.2614,-6.2546,-6.2543,-6.2533,-6.2527,-6.2533,-6.2625,-6.2627,-6.2629,-6.263,0,-6.1952,-6.1955,-6.2014,-6.2076,-6.2125,-6.2174,-6.2221,-6.2255,-6.2265,-6.2314,-6.2386,-6.2429,-6.2515,-6.2583,-6.2646,-6.2671,-6.2652,-6.2653,-6.2671,-6.2669,-6.266,-6.2662,-6.244,-6.2646,-6.2644,-6.2643,-6.2642,-6.2642,-6.2072,-6.2128,-6.2172,-6.2238,-6.2274,-6.2318,-6.2373,-6.2394,-6.2454,-6.2523,-6.2523,-6.2602,-6.2647,-6.273,-6.276,-6.2822,-6.2797,-6.2825,-6.2831,-6.2837,-6.2841,-6.2655,-6.2834,-6.2834,-6.2834,-6.2833,-6.2833,0,-6.2238,-6.2266,-6.2327,-6.2393,-6.2445,-6.2426,-6.2477,-6.2522,-6.2591,-6.2635,-6.269,-6.2773,-6.284,-6.287,-6.2936,-6.2979,-6.2972,-6.2996,-6.299,-6.2996,-6.2862,-6.2837,-6.3001,-6.3001,-6.3001,-6.3001,-6.3,-6.3,-6.233,-6.2422,-6.2432,-6.2543,-6.257,-6.2647,-6.2677,-6.2718,-6.2753,-6.2847,-6.2902,-6.2922,-6.296,-6.3029,-6.309,-6.3097,-6.312,-6.3147,-6.315,-6.3023,-6.3006,-6.2989,-6.2966,-6.3153,-6.3153,-6.3278,-6.3279,-6.328]},{"header":{"parameterUnit":"m.s-1","parameterCategory":1,"la1":30.2991,"la2":30.254,"lo1":-89.0895,"lo2":-89.0444,"dy":0.0017,"dx":0.0017,"nx":28,"ny":28,"refTime":"2025-01-04T09:00:00:Z","depth":0,"parameterNumber":3,"parameterNumberName":"V-component_of_WINDS"},"data":[0,0,0,0,0,0,0,0,0,0,0,0,0,0,0,0,0,0,0,0,0,0,0,0,0,0,0,0,0,0,0,0,0,0,0,0,0,0,0,0,0,0,0,0,0,0,0,0,0,0,0,0,0,0,0,0,0,0,2.3143,2.3145,0,2.3342,2.3345,2.3347,2.3368,2.3366,2.3364,2.3362,2.3569,2.3576,2.3583,0,0,0,0,0,0,0,0,0,0,0,0,0,2.2784,2.279,2.3142,2.3145,2.3147,2.3342,2.3345,2.3348,2.3368,2.3366,2.3363,2.3361,2.3566,2.3575,2.3584,0,0,0,0,0,0,0,0,0,0,0,0,0,2.2957,2.2792,2.3142,2.3181,2.3187,2.3341,2.3345,2.3348,2.3369,2.3366,2.3363,2.336,2.3563,2.3574,2.3585,2.3715,0,0,2.3619,2.3624,0,0,0,0,0,0,0,0,2.2947,2.297,2.3173,2.3179,2.3185,2.3327,2.3294,2.3471,2.337,2.33,2.3362,2.3358,2.3491,2.3508,2.3552,2.3725,2.3734,2.362,2.3627,2.3632,2.3635,0,0,0,0,0,0,0,2.2935,2.2962,2.3222,2.3176,2.3183,2.319,2.3212,2.3328,2.341,2.3306,2.3307,2.3331,2.3494,2.3541,2.3557,2.3737,2.362,2.363,2.3637,2.3641,2.4032,2.4035,0,0,0,0,0,0,2.2915,2.2952,2.3215,2.3228,2.3056,2.3199,2.3223,2.3285,2.3409,2.3425,2.3333,2.3331,2.3524,2.3544,2.3564,2.3728,2.3632,2.3642,2.3648,2.4028,2.4032,2.4036,0,0,0,0,0,0,2.2908,2.2939,2.3207,2.309,2.3125,2.3209,2.3278,2.329,2.3338,2.343,2.3445,2.3366,2.3522,2.3549,2.3679,2.3735,2.3647,2.3657,2.4024,2.4029,2.4034,2.4054,0,0,0,0,0,0,2.2897,2.2936,2.2984,2.3091,2.3131,2.3316,2.3281,2.3296,2.3357,2.3356,2.3465,2.348,2.3522,2.3662,2.369,2.3749,2.3666,2.4019,2.4026,2.4033,2.4049,2.4059,2.4069,0,0,0,0,0,2.2884,2.2981,2.2987,2.3018,2.3194,2.3319,2.3342,2.3388,2.3361,2.3412,2.3472,2.3477,2.3725,2.3675,2.3706,2.377,2.4016,2.4024,2.4032,2.4044,2.4057,2.4068,0,0,0,0,0,0,2.2879,2.2996,2.3003,2.3137,2.3218,2.3323,2.3388,2.34,2.349,2.3486,2.3539,2.3564,2.3692,2.3744,2.3687,2.3905,2.3868,2.3883,2.3866,2.3879,2.3889,2.3874,2.3675,0,0,0,0,0,2.2893,2.2984,2.3082,2.3191,2.3232,2.3303,2.3359,2.3388,2.3474,2.3508,2.3577,2.3662,2.376,2.3822,2.3916,2.4057,2.4082,2.4116,2.4126,2.4134,2.4147,2.4228,2.4245,2.4064,2.4064,2.4064,0,0,2.2924,2.2999,2.3053,2.3192,2.3258,2.3354,2.3331,2.3432,2.3504,2.3524,2.3651,2.3705,2.3803,2.394,2.4003,2.3987,2.4203,2.4145,2.415,2.4159,2.4239,2.4256,2.4271,2.407,2.4068,2.4068,0,0,2.3029,2.3094,2.3193,2.3261,2.3361,2.3409,2.3433,2.3537,2.3574,2.3702,2.372,2.3807,2.3973,2.4043,2.4101,2.4237,2.4246,2.4266,2.4319,2.4398,2.4412,2.4425,2.4477,2.4494,2.4278,2.4279,2.4279,0,2.3054,2.3197,2.3243,2.3345,2.3407,2.343,2.3533,2.3597,2.3723,2.3766,2.3746,2.3958,2.4025,2.418,2.4214,2.4259,2.429,2.4254,2.4406,2.442,2.4433,2.4482,2.4501,2.428,2.428,2.428,2.428,0,2.3225,2.3324,2.3393,2.3515,2.3585,2.3687,2.3751,2.3817,2.384,2.389,2.4023,2.4106,2.4219,2.4258,2.4281,2.4418,2.4405,2.4395,2.4359,2.4451,2.4499,2.4518,2.4283,2.4283,2.4282,2.4282,0,0,2.3329,2.3479,2.3503,2.3561,2.3676,2.3754,2.3859,2.397,2.4026,2.4114,2.4204,2.4346,2.4339,2.4404,2.4436,2.4506,2.4612,2.4488,2.4491,2.451,2.4772,2.4779,2.48,2.4619,2.4623,2.4626,2.4764,0,2.3449,2.3634,2.3681,2.384,2.3934,2.396,2.4051,2.4133,2.4184,2.4273,2.4329,2.443,2.4412,2.4452,2.4521,2.4584,2.4666,2.4575,2.4706,2.471,2.4681,2.4824,2.4832,2.4958,2.4783,2.4786,2.4788,0,2.3612,2.3704,2.3872,2.3979,2.402,2.4101,2.4209,2.4293,2.4387,2.442,2.4495,2.4521,2.4634,2.4592,2.4749,2.4687,2.4744,2.4783,2.4789,2.4804,2.4755,2.4845,2.4999,2.5019,2.4817,2.4815,2.4813,0,2.3674,2.384,2.3963,2.4012,2.4138,2.4195,2.4251,2.4342,2.4407,2.4502,2.4545,2.4651,2.471,2.4793,2.4849,2.4813,2.5003,2.4965,2.5035,2.5034,2.5074,2.5071,2.5242,2.5109,2.5108,2.5108,2.5108,0,2.3803,2.3905,2.3994,2.4069,2.4187,2.4241,2.4356,2.4413,2.4495,2.4584,2.4612,2.4696,2.4763,2.4857,2.4901,2.5027,2.5053,2.5084,2.5095,2.5082,2.5079,2.5121,2.5114,2.5113,2.5112,2.5111,2.511,0,2.3891,2.3954,2.4091,2.42,2.4231,2.4312,2.4407,2.4483,2.4536,2.4649,2.4679,2.4762,2.4874,2.4938,2.5078,2.5109,2.5249,2.5255,2.5217,2.5222,2.529,2.5283,2.5494,2.5526,2.537,2.5372,2.5373,0,2.397,2.405,2.4169,2.423,2.4287,2.4386,2.4453,2.4511,2.458,2.4696,2.4759,2.4873,2.4967,2.5146,2.522,2.5329,2.5339,2.5405,2.5355,2.5341,2.5342,2.5337,2.5347,2.5414,2.5415,2.5416,2.5417,0,2.4103,2.4132,2.4226,2.4334,2.4414,2.4501,2.4588,2.4638,2.4711,2.4787,2.4903,2.4976,2.5121,2.5235,2.535,2.541,2.5427,2.5433,2.5455,2.5444,2.5419,2.5436,2.5242,2.5427,2.5426,2.5426,2.5425,2.5425,2.4191,2.4265,2.4361,2.4467,2.4539,2.4621,2.4699,2.4762,2.4859,2.4981,2.501,2.5132,2.5229,2.5387,2.5449,2.5547,2.5535,2.5567,2.5576,2.5583,2.5587,2.5403,2.5568,2.5568,2.5568,2.5568,2.5568,0,2.4328,2.4392,2.4489,2.4611,2.4695,2.4704,2.4802,2.4873,2.498,2.5068,2.5161,2.5295,2.5407,2.5491,2.5606,2.5668,2.568,2.5697,2.5693,2.5708,2.5589,2.5559,2.5686,2.5686,2.5686,2.5686,2.5686,2.5686,2.4409,2.4535,2.4575,2.4739,2.4803,2.4922,2.4978,2.5055,2.5126,2.5275,2.5368,2.5422,2.551,2.5632,2.5736,2.5758,2.58,2.5817,2.584,2.5728,2.5715,2.5703,2.5676,2.5825,2.5825,2.5951,2.5952,2.5953]}]]